Details From PASY - Eareckson As
To PADK - Adak
Flight Number -
Tags Generated
Created
Modified
Stats Distance 344 nm / 637 km
Max Altitude 0 ft / 0 m
Waypoints 3
Social Downloads 7
Likes 0
Share VATSIM

Download

Looking for another format? Having issues loading an existing format? Contact us
Advertisement - Login to hide

Notes

Generated

Route

PASY ADK PADK

ID Type Via Altitude Latitude Longitude Leg Dist Tot Dist Heading (true) Name
O PASY APT - 0 ft / 0 m 52.71623˚ 174.09204˚ - 0 nm - -
ADK NDB - 0 ft / 0 m 51.87189˚ -176.67600˚ 342 nm 342 nm 95° / 102° MOUNT MOFFETT NDB
O PADK APT - 0 ft / 0 m 51.88270˚ -176.64786˚ 1 nm 343 nm 58° / 58° ADAK

Altitude Profile

Advertisement - Login to hide

Weather


0- 5 10 15 20 25 30 35+ Temperature / ° C

Clouds and Precipitation
Forecast for 2018-05-24 12:00 UTC. Updated 5 hours ago

Ground ~20,000 ft ~40,000 ft Winds

PASY

Details ICAO PASY (SYA)
Name EARECKSON AS
Region USA (Alaska)
Timezone America/Adak (UTC-9.0)
Stats Elevation 98 ft / 30 m (AMSL)
Location 52.712221° 174.113618°
Runways 1
Magnetic Variation 0.395° E

METAR

PASY 241558Z AUTO 29017KT 7/8SM -RA BR OVC003 04/03 A2972

Decode

TAF

TAF PASY 241400Z 2414/2520 29016KT 9999 OVC004 620203 QNH2967INS TEMPO 2414/2420 OVC008 620203 BECMG 2421/2422 33010KT 9999 OVC005 620203 QNH2983INS TX05/2503Z TN03/2418Z

Decode

Departure Runways

ID Width Length Bearing (true) Bearing (mag) Surface Threshold Offset Overrun Length
10 150 ft / 46 m 9,978 ft / 3,041 m 107.03° 106.63° Asphalt 0 ft / 0 m 0 ft / 0 m
28 150 ft / 46 m 9,978 ft / 3,041 m 287.06° 286.66° Asphalt 0 ft / 0 m 0 ft / 0 m

PADK

Details ICAO PADK (ADK)
Name ADAK
Region USA (Alaska)
Timezone America/Adak (UTC-9.0)
Stats Elevation 18 ft / 5 m (AMSL)
Location 51.877976° -176.645742°
Runways 2
Magnetic Variation 4.678° E

METAR

PADK 241605Z AUTO 28011KT 10SM BKN027 04/01 A2954

Decode

TAF

Not found

Destination Runways

ID Width Length Bearing (true) Bearing (mag) Surface Threshold Offset Overrun Length
05 200 ft / 61 m 7,772 ft / 2,369 m 60.49° 55.81° Asphalt 0 ft / 0 m 751 ft / 229 m
18 200 ft / 61 m 7,603 ft / 2,317 m 185.39° 180.71° Asphalt 0 ft / 0 m 0 ft / 0 m
23 200 ft / 61 m 7,772 ft / 2,369 m 240.52° 235.84° Asphalt 0 ft / 0 m 151 ft / 46 m
36 200 ft / 61 m 7,603 ft / 2,317 m 5.38° 0.70° Asphalt 0 ft / 0 m 0 ft / 0 m

Approach Navaids

Runway Type Ident Frequency Range Bearing (true) Bearing (mag) Slope Elevation
23 Localiser IBER 108.90 MHz 18 nm / 33 km 240.61° 235.93° - 18 ft / 5 m (AMSL)
23 Glidescope IBER 108.90 MHz 10 nm / 19 km 240.51° 235.83° 2.75° 18 ft / 5 m (AMSL)

Popular Alternatives